[[{"header":{"parameterUnit":"m.s-1","parameterCategory":1,"la1":30.2991,"la2":30.254,"lo1":-89.0895,"lo2":-89.0444,"dy":0.0017,"dx":0.0017,"nx":28,"ny":28,"refTime":"2024-03-24T03:00:00:Z","depth":0,"parameterNumber":2,"parameterNumberName":"U-component_of_WINDS"},"data":[0,0,0,0,0,0,0,0,0,0,0,0,0,0,0,0,0,0,0,0,0,0,0,0,0,0,0,0,0,0,0,0,0,0,0,0,0,0,0,0,0,0,0,0,0,0,0,0,0,0,0,0,0,0,0,0,0,0,-5.3719,-5.3719,0,-5.3703,-5.3703,-5.3703,-5.3632,-5.3631,-5.3629,-5.3627,-5.3611,-5.3612,-5.3613,0,0,0,0,0,0,0,0,0,0,0,0,0,-5.369,-5.3691,-5.3719,-5.3719,-5.3719,-5.3703,-5.3703,-5.3703,-5.3633,-5.3631,-5.3629,-5.3627,-5.3611,-5.3612,-5.3613,0,0,0,0,0,0,0,0,0,0,0,0,0,-5.3691,-5.3691,-5.3719,-5.3682,-5.3678,-5.3703,-5.3703,-5.3703,-5.3633,-5.363,-5.3628,-5.3626,-5.361,-5.3612,-5.3613,-5.3673,0,0,-5.3618,-5.3619,0,0,0,0,0,0,0,0,-5.3691,-5.3692,-5.3687,-5.3684,-5.368,-5.3667,-5.3687,-5.3693,-5.3634,-5.365,-5.3627,-5.3624,-5.3632,-5.3631,-5.3634,-5.3672,-5.3671,-5.3618,-5.3619,-5.362,-5.3621,0,0,0,0,0,0,0,-5.3691,-5.3693,-5.3713,-5.3687,-5.3683,-5.3666,-5.3664,-5.3687,-5.3655,-5.3648,-5.3643,-5.3642,-5.3629,-5.3632,-5.3633,-5.3671,-5.3618,-5.362,-5.3621,-5.3622,-5.3759,-5.3761,0,0,0,0,0,0,-5.3696,-5.3693,-5.3713,-5.3712,-5.368,-5.3669,-5.3666,-5.3674,-5.3654,-5.3649,-5.3645,-5.3639,-5.3631,-5.3631,-5.3632,-5.37,-5.362,-5.3622,-5.3623,-5.3756,-5.3759,-5.3762,0,0,0,0,0,0,-5.3696,-5.3699,-5.3714,-5.3701,-5.3702,-5.3672,-5.3681,-5.3675,-5.3678,-5.3651,-5.3645,-5.3654,-5.3629,-5.363,-5.3663,-5.3698,-5.3622,-5.3624,-5.3753,-5.3757,-5.3761,-5.3837,0,0,0,0,0,0,-5.3696,-5.3699,-5.3721,-5.3702,-5.3703,-5.3745,-5.3684,-5.3676,-5.3681,-5.3674,-5.3658,-5.3653,-5.3627,-5.3661,-5.3665,-5.3699,-5.3625,-5.375,-5.3755,-5.376,-5.3831,-5.3843,-5.3853,0,0,0,0,0,-5.3695,-5.3743,-5.3722,-5.3725,-5.3729,-5.3747,-5.3748,-5.3716,-5.3684,-5.3706,-5.3689,-5.3654,-5.3695,-5.3665,-5.3669,-5.3704,-5.3747,-5.3753,-5.3759,-5.3826,-5.3841,-5.3853,0,0,0,0,0,0,-5.3765,-5.3739,-5.3716,-5.376,-5.3756,-5.3735,-5.3761,-5.3733,-5.3738,-5.3731,-5.3692,-5.3689,-5.3729,-5.372,-5.3688,-5.3762,-5.3715,-5.3722,-5.3765,-5.3779,-5.379,-5.3789,-5.3627,0,0,0,0,0,-5.3786,-5.3802,-5.3779,-5.382,-5.3819,-5.3791,-5.3798,-5.3774,-5.3769,-5.3767,-5.3753,-5.375,-5.3762,-5.377,-5.378,-5.3831,-5.3827,-5.3858,-5.3869,-5.3878,-5.3883,-5.391,-5.3923,-5.3782,-5.3782,-5.3782,0,0,-5.3828,-5.3816,-5.3829,-5.3833,-5.3828,-5.3846,-5.379,-5.3812,-5.3825,-5.377,-5.3801,-5.3791,-5.3785,-5.3828,-5.3846,-5.3822,-5.3922,-5.3886,-5.3893,-5.3893,-5.3918,-5.3931,-5.3943,-5.3786,-5.3785,-5.3785,0,0,-5.3914,-5.3907,-5.394,-5.3936,-5.3929,-5.3911,-5.392,-5.3904,-5.3895,-5.3926,-5.3886,-5.3902,-5.3923,-5.392,-5.3922,-5.4012,-5.3979,-5.4016,-5.4073,-5.4099,-5.411,-5.412,-5.4151,-5.4162,-5.4022,-5.4023,-5.4023,0,-5.3966,-5.3992,-5.396,-5.3985,-5.3988,-5.3942,-5.3975,-5.3974,-5.397,-5.3974,-5.3948,-5.3975,-5.3968,-5.4009,-5.4031,-5.4035,-5.4043,-5.4016,-5.4111,-5.4121,-5.4129,-5.4158,-5.417,-5.4027,-5.4027,-5.4026,-5.4026,0,-5.4057,-5.4077,-5.4104,-5.4103,-5.411,-5.4139,-5.4112,-5.4124,-5.4101,-5.4086,-5.4119,-5.4109,-5.4116,-5.4125,-5.4102,-5.4164,-5.4149,-5.4118,-5.407,-5.4148,-5.4174,-5.4185,-5.4033,-5.4032,-5.403,-5.4029,0,0,-5.4182,-5.4166,-5.4176,-5.4176,-5.4167,-5.4181,-5.4209,-5.4217,-5.4227,-5.4228,-5.425,-5.4271,-5.4243,-5.4245,-5.4223,-5.4246,-5.4317,-5.4212,-5.4211,-5.423,-5.4384,-5.4405,-5.4419,-5.4297,-5.4299,-5.4301,-5.4384,0,-5.4263,-5.4309,-5.4283,-5.4332,-5.435,-5.4308,-5.4333,-5.433,-5.4318,-5.4331,-5.4318,-5.4333,-5.4295,-5.4296,-5.4318,-5.4304,-5.4347,-5.4298,-5.4316,-5.4317,-5.4316,-5.4432,-5.4455,-5.4533,-5.4394,-5.4396,-5.4397,0,-5.4362,-5.4368,-5.4419,-5.4409,-5.4415,-5.4437,-5.4443,-5.4457,-5.4454,-5.4444,-5.4448,-5.4421,-5.4448,-5.4404,-5.4441,-5.4408,-5.4415,-5.4409,-5.4412,-5.441,-5.436,-5.4432,-5.4558,-5.4569,-5.4413,-5.4412,-5.4411,0,-5.4446,-5.4467,-5.4501,-5.4502,-5.4491,-5.4508,-5.4504,-5.4499,-5.4506,-5.4512,-5.4516,-5.4525,-5.453,-5.4538,-5.4514,-5.4484,-5.4554,-5.4508,-5.4546,-5.4546,-5.4559,-5.4558,-5.4686,-5.4568,-5.4568,-5.4568,-5.4568,0,-5.4537,-5.4569,-5.4539,-5.4559,-5.4595,-5.4567,-5.4603,-5.4595,-5.4592,-5.461,-5.4576,-5.4594,-5.4563,-5.4579,-5.4561,-5.4594,-5.4597,-5.4589,-5.4583,-5.459,-5.4591,-5.4592,-5.4585,-5.4571,-5.457,-5.457,-5.4569,0,-5.4635,-5.4615,-5.4649,-5.4638,-5.4635,-5.4663,-5.4652,-5.4671,-5.4658,-5.4682,-5.4686,-5.4666,-5.4682,-5.4661,-5.4675,-5.4663,-5.4708,-5.4696,-5.4709,-5.4704,-5.4742,-5.4738,-5.4873,-5.4889,-5.4764,-5.4765,-5.4766,0,-5.4692,-5.4717,-5.4708,-5.4719,-5.4717,-5.4734,-5.4742,-5.4716,-5.4725,-5.4726,-5.4745,-5.4759,-5.4768,-5.4797,-5.4783,-5.4795,-5.4781,-5.4827,-5.4782,-5.4789,-5.4779,-5.4777,-5.4779,-5.4835,-5.4837,-5.4838,-5.4839,0,-5.4796,-5.4787,-5.4799,-5.4809,-5.4819,-5.4826,-5.483,-5.484,-5.4813,-5.4826,-5.4843,-5.4851,-5.4867,-5.4881,-5.4889,-5.4885,-5.4858,-5.4854,-5.4863,-5.4869,-5.4875,-5.4871,-5.4731,-5.485,-5.4849,-5.4848,-5.4848,-5.4847,-5.4874,-5.4895,-5.4892,-5.4908,-5.4909,-5.4914,-5.4931,-5.4922,-5.4936,-5.4946,-5.4931,-5.4953,-5.4951,-5.496,-5.496,-5.4976,-5.4956,-5.4969,-5.4972,-5.4975,-5.498,-5.4875,-5.4978,-5.4977,-5.4977,-5.4977,-5.4977,0,-5.4975,-5.4973,-5.4988,-5.4995,-5.5008,-5.4983,-5.4987,-5.4999,-5.5018,-5.502,-5.5031,-5.5051,-5.5066,-5.5055,-5.5067,-5.5083,-5.507,-5.5087,-5.5084,-5.5083,-5.4998,-5.4988,-5.5096,-5.5096,-5.5096,-5.5096,-5.5096,-5.5096,-5.5029,-5.5062,-5.5053,-5.5086,-5.5083,-5.5105,-5.5109,-5.5114,-5.5115,-5.514,-5.5152,-5.5145,-5.5142,-5.5154,-5.5167,-5.5163,-5.5169,-5.5189,-5.5181,-5.5101,-5.5089,-5.5078,-5.5068,-5.5191,-5.5191,-5.5264,-5.5264,-5.5265]},{"header":{"parameterUnit":"m.s-1","parameterCategory":1,"la1":30.2991,"la2":30.254,"lo1":-89.0895,"lo2":-89.0444,"dy":0.0017,"dx":0.0017,"nx":28,"ny":28,"refTime":"2024-03-24T03:00:00:Z","depth":0,"parameterNumber":3,"parameterNumberName":"V-component_of_WINDS"},"data":[0,0,0,0,0,0,0,0,0,0,0,0,0,0,0,0,0,0,0,0,0,0,0,0,0,0,0,0,0,0,0,0,0,0,0,0,0,0,0,0,0,0,0,0,0,0,0,0,0,0,0,0,0,0,0,0,0,0,4.4034,4.4035,0,4.409,4.4091,4.4091,4.4077,4.4076,4.4074,4.4073,4.4126,4.4129,4.4131,0,0,0,0,0,0,0,0,0,0,0,0,0,4.3912,4.3915,4.4034,4.4035,4.4036,4.409,4.4091,4.4092,4.4077,4.4076,4.4074,4.4073,4.4125,4.4128,4.4131,0,0,0,0,0,0,0,0,0,0,0,0,0,4.3966,4.3915,4.4034,4.4035,4.4036,4.409,4.4091,4.4092,4.4077,4.4075,4.4074,4.4072,4.4124,4.4128,4.4132,4.4187,0,0,4.4143,4.4144,0,0,0,0,0,0,0,0,4.3963,4.3971,4.4034,4.4035,4.4036,4.4075,4.4067,4.4124,4.4078,4.4061,4.4073,4.4072,4.411,4.4115,4.4129,4.4189,4.4192,4.4143,4.4145,4.4147,4.4148,0,0,0,0,0,0,0,4.396,4.3968,4.4056,4.4035,4.4036,4.4032,4.4038,4.4078,4.4094,4.4062,4.4062,4.4069,4.411,4.4125,4.413,4.4193,4.4143,4.4146,4.4148,4.415,4.4305,4.4307,0,0,0,0,0,0,4.3956,4.3965,4.4054,4.4058,4.3995,4.4035,4.4042,4.4064,4.4094,4.4097,4.407,4.4068,4.412,4.4126,4.4132,4.4201,4.4147,4.415,4.4152,4.4303,4.4305,4.4307,0,0,0,0,0,0,4.3953,4.3964,4.4052,4.4011,4.4022,4.4039,4.4064,4.4066,4.4081,4.4099,4.4102,4.4083,4.4119,4.4127,4.4174,4.4203,4.4152,4.4155,4.4301,4.4304,4.4306,4.4339,0,0,0,0,0,0,4.395,4.3963,4.3984,4.4012,4.4025,4.4095,4.4066,4.4068,4.4088,4.4085,4.4112,4.4115,4.4118,4.4169,4.4178,4.4207,4.4158,4.4298,4.4302,4.4305,4.4335,4.4342,4.4348,0,0,0,0,0,4.3945,4.399,4.3986,4.3996,4.4052,4.4096,4.4103,4.4108,4.409,4.4112,4.4124,4.4114,4.4198,4.4174,4.4184,4.4214,4.4296,4.4301,4.4305,4.4332,4.4341,4.4348,0,0,0,0,0,0,4.3962,4.3993,4.3989,4.4044,4.4068,4.4094,4.4121,4.4116,4.4145,4.4141,4.4144,4.415,4.42,4.4211,4.4184,4.4271,4.4244,4.4251,4.4262,4.427,4.4277,4.4273,4.4161,0,0,0,0,0,4.3973,4.4007,4.4032,4.4077,4.409,4.4104,4.4123,4.4125,4.4149,4.4159,4.4174,4.4197,4.4229,4.425,4.428,4.4337,4.4343,4.4362,4.4369,4.4374,4.438,4.4413,4.4423,4.4321,4.4321,4.4321,0,0,4.3994,4.4015,4.4036,4.4082,4.41,4.4136,4.4112,4.415,4.4176,4.4164,4.4211,4.4224,4.425,4.4303,4.4327,4.4314,4.441,4.438,4.4384,4.4387,4.4419,4.4428,4.4437,4.4324,4.4324,4.4323,0,0,4.4051,4.407,4.4112,4.4133,4.4162,4.4172,4.4182,4.4209,4.4218,4.4266,4.4259,4.4289,4.4343,4.4363,4.438,4.4449,4.4441,4.4458,4.4493,4.4526,4.4534,4.4541,4.4567,4.4577,4.4464,4.4464,4.4464,0,4.4074,4.4128,4.4134,4.4174,4.4194,4.4188,4.423,4.4249,4.4286,4.4301,4.4286,4.4357,4.4373,4.4433,4.445,4.4463,4.4476,4.4456,4.4532,4.454,4.4546,4.4572,4.4581,4.4466,4.4466,4.4466,4.4466,0,4.4155,4.4193,4.4223,4.4263,4.4287,4.4327,4.4339,4.4363,4.4363,4.4374,4.4424,4.4444,4.448,4.4494,4.4493,4.4554,4.4545,4.4532,4.4505,4.4558,4.4582,4.4591,4.4469,4.4468,4.4468,4.4467,0,0,4.4223,4.4268,4.4279,4.4299,4.4333,4.4361,4.4402,4.444,4.4461,4.4487,4.4522,4.457,4.4559,4.4578,4.458,4.4608,4.4664,4.4591,4.4592,4.4606,4.4735,4.4746,4.4757,4.4659,4.4661,4.4662,4.4733,0,4.4285,4.436,4.4368,4.4434,4.447,4.4465,4.4501,4.4526,4.4538,4.4569,4.4581,4.4617,4.4598,4.461,4.4638,4.4651,4.469,4.4646,4.4692,4.4694,4.4687,4.4769,4.4781,4.4847,4.4742,4.4744,4.4745,0,4.4367,4.44,4.4471,4.4503,4.4518,4.455,4.4587,4.4617,4.4645,4.4652,4.4675,4.4674,4.4717,4.4689,4.4748,4.4718,4.4737,4.4747,4.475,4.4755,4.4723,4.4778,4.4868,4.4878,4.4759,4.4758,4.4757,0,4.4413,4.4474,4.4525,4.4541,4.4579,4.4603,4.4619,4.4646,4.4669,4.47,4.4715,4.4749,4.4769,4.4795,4.4804,4.4782,4.4864,4.4835,4.4871,4.4871,4.4889,4.4888,4.4984,4.4899,4.4898,4.4898,4.4898,0,4.4482,4.4526,4.4547,4.4578,4.4628,4.4636,4.4685,4.47,4.4725,4.4759,4.4756,4.4788,4.4796,4.483,4.4836,4.4886,4.4894,4.49,4.4902,4.4902,4.4901,4.4915,4.4911,4.4901,4.49,4.49,4.4899,0,4.4542,4.4557,4.4613,4.4646,4.4655,4.469,4.4718,4.4748,4.476,4.4804,4.4815,4.4833,4.4873,4.4884,4.493,4.4935,4.4994,4.499,4.4986,4.4986,4.5022,4.5019,4.5131,4.5147,4.505,4.5051,4.5051,0,4.4586,4.4621,4.4658,4.4682,4.4701,4.4738,4.4763,4.4772,4.4798,4.4834,4.4861,4.4901,4.4933,4.4997,4.5014,4.505,4.5048,4.5085,4.5054,4.5054,4.5051,4.505,4.5055,4.5092,4.5093,4.5093,4.5094,0,4.4663,4.467,4.4706,4.4746,4.4776,4.4807,4.4836,4.4856,4.487,4.4899,4.4941,4.4966,4.5016,4.5056,4.5093,4.5109,4.5105,4.5104,4.5115,4.5116,4.5112,4.5117,4.5004,4.5102,4.5101,4.51,4.51,4.51,4.4718,4.475,4.4782,4.4823,4.4847,4.4876,4.4907,4.4925,4.4961,4.5004,4.5007,4.5053,4.5082,4.5132,4.5151,4.5186,4.5175,4.519,4.5194,4.5198,4.5202,4.5106,4.5193,4.5193,4.5192,4.5192,4.5192,0,4.4797,4.4819,4.4857,4.49,4.4933,4.4927,4.4961,4.4988,4.5029,4.5058,4.5091,4.514,4.518,4.5201,4.5241,4.5265,4.5265,4.5276,4.5275,4.5279,4.5209,4.5197,4.5276,4.5276,4.5276,4.5276,4.5276,4.5276,4.4843,4.4897,4.4908,4.4974,4.4995,4.5042,4.5062,4.5088,4.5112,4.5168,4.5202,4.5216,4.5242,4.5284,4.532,4.5325,4.5341,4.5354,4.5358,4.5292,4.5283,4.5275,4.5264,4.5356,4.5357,4.5425,4.5426,4.5426]}]]